Starlink 3952

operational
NORAD ID: 52534 Int'l Des: 2022-051 Owner: SPXS Country: US Constellation: starlink
LEOCIRCULAR

Starlink 3952について

説明を読み込み中...

リアルタイム位置

3D地球を読み込み中...

次回通過

高度履歴

Altitude vs Time

uPlot chart will show altitude changes over time

軌道要素

1 52534U 22051B 26034.07020757 .00000656 00000-0 59324-4 0 9996
2 52534 53.2172 284.5357 0001530 94.9548 265.1618 15.08845690206950
Epoch: Feb 3, 2026 • Age: 8 hours

現在のステータス

高度 539.9 km
速度 7.59 km/s
衛星直下点 7.45°N, 9.92°E
打ち上げ日 May 13, 2022
運用期間 3.7 years
タイプ internet

技術仕様

分類 Payload
質量 297.00 kg
乾燥質量 275.00 kg
総質量 297.00 kg
長さ 0.20 m
直径 2.80 m
スパン 9.00 m
形状 Box + pan
製造者 SPXS
バスタイプ Starlink
フェーズステータス In Orbit
所有者/国 SPXS/US

大規模コンステレーション

Loading constellations...